BAW81 EGLL-DGAA

Flight info

Callsign BAW81
Flight time 6h 12m
Altitude 37000
Route MODMI M185 MID L612 BOGNA UL612 VEULE DCT DEKOD DCT DISAK DCT DIRMO DCT ETAMO DCT ADEKA DCT MOKDI DCT MEN DCT BADAM DCT KANIG DCT KENAS DCT POS N855 GENIO DCT MOGIL UB31 ZEM/N0479F380 UZ333 KAHIL UB726 GHA/N0482F390 UA615 TMS UA604 EREBO/N0495F380 DCT MIGNI/N0488F400 DCT ABALA DCT IPUTA DCT TATAT DCT KILMO DCT LITEX LITEX1B
Aircraft A35K/H-SDE2E3GHIJ3J4J5LM1ORWXY/LB1D1

Departure

Time 2026-04-24 12:56
Airport London Heathrow Airport (EGLL)

Arrival

Time 2026-04-24 19:08
Airport Kotoka International Airport (DGAA)
Time Latitude Longitude Altitude Speed Heading
2026-04-24 12:16 51.47308 -0.48017 92 ft 0 kts 270°
2026-04-24 12:37 51.47308 -0.47993 117 ft 3 kts 270°
2026-04-24 12:37 51.47308 -0.47961 122 ft 3 kts 270°
2026-04-24 12:38 51.47309 -0.47942 95 ft 3 kts 270°
2026-04-24 12:38 51.47308 -0.47915 94 ft 3 kts 264°
2026-04-24 12:38 51.47313 -0.47887 93 ft 3 kts 225°
2026-04-24 12:39 51.47368 -0.47872 91 ft 2 kts 180°
2026-04-24 12:39 51.47370 -0.47872 92 ft 5 kts 180°
2026-04-24 12:48 51.47364 -0.47872 93 ft 3 kts 180°
2026-04-24 12:48 51.47314 -0.47872 95 ft 12 kts 180°
2026-04-24 12:48 51.47225 -0.47871 92 ft 14 kts 180°
2026-04-24 12:48 51.47119 -0.47870 92 ft 16 kts 179°
2026-04-24 12:49 51.46997 -0.47869 92 ft 18 kts 180°
2026-04-24 12:49 51.46886 -0.47868 94 ft 13 kts 180°
2026-04-24 12:49 51.46789 -0.47867 92 ft 11 kts 180°
2026-04-24 12:49 51.46749 -0.47910 95 ft 7 kts 254°
2026-04-24 12:50 51.46745 -0.48004 92 ft 10 kts 269°
2026-04-24 12:50 51.46744 -0.48127 92 ft 13 kts 269°
2026-04-24 12:50 51.46742 -0.48282 93 ft 15 kts 269°
2026-04-24 12:50 51.46742 -0.48466 92 ft 18 kts 270°
2026-04-24 12:51 51.46742 -0.48642 97 ft 13 kts 270°
2026-04-24 12:51 51.46727 -0.48729 97 ft 6 kts 218°
2026-04-24 12:51 51.46677 -0.48747 95 ft 9 kts 183°
2026-04-24 12:51 51.46624 -0.48756 94 ft 7 kts 194°
2026-04-24 12:52 51.46611 -0.48763 95 ft 0 kts 198°
2026-04-24 12:53 51.46608 -0.48764 95 ft 2 kts 198°
2026-04-24 12:53 51.46572 -0.48781 95 ft 7 kts 191°
2026-04-24 12:53 51.46513 -0.48769 97 ft 9 kts 152°
2026-04-24 12:53 51.46480 -0.48682 96 ft 9 kts 102°
2026-04-24 12:54 51.46478 -0.48627 95 ft 0 kts 90°
2026-04-24 12:55 51.46478 -0.48619 93 ft 5 kts 90°
2026-04-24 12:55 51.46480 -0.48288 94 ft 63 kts 89°
2026-04-24 12:55 51.46483 -0.47223 97 ft 127 kts 90°
2026-04-24 12:55 51.46490 -0.45561 352 ft 158 kts 89°
2026-04-24 12:56 51.46514 -0.43761 1036 ft 166 kts 88°
2026-04-24 12:56 51.46367 -0.41845 1549 ft 186 kts 107°
2026-04-24 12:56 51.45736 -0.39881 2009 ft 209 kts 123°
2026-04-24 12:56 51.44539 -0.38377 2452 ft 231 kts 154°
2026-04-24 12:57 51.42963 -0.37464 3034 ft 248 kts 160°
2026-04-24 12:57 51.41292 -0.36638 3807 ft 254 kts 163°
2026-04-24 12:57 51.39512 -0.36358 4587 ft 263 kts 183°
2026-04-24 12:57 51.37747 -0.37197 5408 ft 268 kts 202°
2026-04-24 12:58 51.36078 -0.38492 6244 ft 271 kts 204°
2026-04-24 12:58 51.34385 -0.39850 7094 ft 273 kts 204°
2026-04-24 12:58 51.32669 -0.41205 7990 ft 275 kts 203°
2026-04-24 12:58 51.30948 -0.42560 8895 ft 277 kts 204°
2026-04-24 12:59 51.29203 -0.43940 9774 ft 281 kts 203°
2026-04-24 12:59 51.27436 -0.45334 10600 ft 287 kts 203°
2026-04-24 12:59 51.25612 -0.46787 11002 ft 307 kts 204°
2026-04-24 12:59 51.23634 -0.48367 11350 ft 328 kts 204°
2026-04-24 13:00 51.21525 -0.50048 11680 ft 347 kts 204°
2026-04-24 13:00 51.19301 -0.51788 12082 ft 363 kts 204°
2026-04-24 13:00 51.17003 -0.53563 12731 ft 369 kts 204°
2026-04-24 13:00 51.14673 -0.55355 13452 ft 375 kts 204°
2026-04-24 13:01 51.12302 -0.57180 14184 ft 379 kts 204°
2026-04-24 13:01 51.09858 -0.58810 14891 ft 381 kts 197°
2026-04-24 13:01 51.07276 -0.59717 15702 ft 380 kts 186°
2026-04-24 13:01 51.04623 -0.59701 16376 ft 384 kts 173°
2026-04-24 13:02 51.02063 -0.58626 17027 ft 389 kts 158°
2026-04-24 13:02 50.99627 -0.56640 17695 ft 395 kts 151°
2026-04-24 13:02 50.97293 -0.54294 18407 ft 399 kts 148°
2026-04-24 13:02 50.94995 -0.51780 19031 ft 403 kts 147°
2026-04-24 13:03 50.92686 -0.49194 19551 ft 410 kts 147°
2026-04-24 13:03 50.90353 -0.46598 20064 ft 416 kts 147°
2026-04-24 13:03 50.87923 -0.43937 20615 ft 422 kts 148°
2026-04-24 13:03 50.85500 -0.41326 21178 ft 428 kts 148°
2026-04-24 13:04 50.83020 -0.38684 21751 ft 433 kts 149°
2026-04-24 13:04 50.80499 -0.36014 22294 ft 439 kts 149°
2026-04-24 13:04 50.77946 -0.33322 22854 ft 444 kts 149°
2026-04-24 13:04 50.75354 -0.30593 23384 ft 450 kts 149°
2026-04-24 13:05 50.72732 -0.27837 23898 ft 456 kts 149°
2026-04-24 13:05 50.70133 -0.25107 24338 ft 460 kts 149°
2026-04-24 13:05 50.67518 -0.22354 24825 ft 464 kts 149°
2026-04-24 13:05 50.64818 -0.19518 25318 ft 467 kts 149°
2026-04-24 13:06 50.62107 -0.16679 25842 ft 469 kts 149°
2026-04-24 13:06 50.59374 -0.13821 26352 ft 472 kts 149°
2026-04-24 13:06 50.56625 -0.10950 26809 ft 476 kts 149°
2026-04-24 13:06 50.53854 -0.08061 27271 ft 480 kts 149°
2026-04-24 13:07 50.51055 -0.05147 27729 ft 484 kts 149°
2026-04-24 13:07 50.48230 -0.02209 28180 ft 488 kts 149°
2026-04-24 13:07 50.45390 0.00739 28649 ft 490 kts 149°
2026-04-24 13:07 50.42538 0.03700 29187 ft 492 kts 149°
2026-04-24 13:08 50.39703 0.06636 29566 ft 496 kts 149°
2026-04-24 13:08 50.36804 0.09635 29915 ft 500 kts 149°
2026-04-24 13:08 50.33892 0.12648 30330 ft 503 kts 149°
2026-04-24 13:09 50.28032 0.18683 31220 ft 502 kts 149°
2026-04-24 13:09 50.25125 0.21671 31779 ft 499 kts 149°
2026-04-24 13:09 50.22231 0.24642 32269 ft 497 kts 149°
2026-04-24 13:09 50.19348 0.27600 32701 ft 496 kts 149°
2026-04-24 13:10 50.16464 0.30563 33113 ft 496 kts 149°
2026-04-24 13:10 50.13622 0.33482 33572 ft 493 kts 149°
2026-04-24 13:10 50.10756 0.36425 34095 ft 490 kts 149°
2026-04-24 13:10 50.07916 0.39339 34513 ft 489 kts 149°
2026-04-24 13:11 50.05074 0.42250 34807 ft 488 kts 149°
2026-04-24 13:11 50.02230 0.45153 35125 ft 488 kts 149°
2026-04-24 13:11 49.99405 0.48033 35525 ft 485 kts 149°
2026-04-24 13:11 49.96589 0.50903 35866 ft 483 kts 149°
2026-04-24 13:12 49.93778 0.53766 36161 ft 482 kts 149°
2026-04-24 13:12 49.90975 0.56615 36418 ft 482 kts 148°
2026-04-24 13:12 49.88173 0.59456 36718 ft 480 kts 148°
2026-04-24 13:12 49.86320 0.61332 36887 ft 480 kts 148°
2026-04-24 13:13 49.82603 0.65072 37219 ft 480 kts 149°
2026-04-24 13:13 49.79778 0.67840 37250 ft 484 kts 150°
2026-04-24 13:13 49.75004 0.72443 37246 ft 484 kts 150°
2026-04-24 13:14 49.69279 0.77952 37246 ft 484 kts 150°
2026-04-24 13:14 49.63557 0.83476 37245 ft 484 kts 150°
2026-04-24 13:15 49.57880 0.88955 37242 ft 484 kts 150°
2026-04-24 13:15 49.52167 0.94455 37239 ft 483 kts 150°
2026-04-24 13:16 49.46447 0.99945 37238 ft 484 kts 149°
2026-04-24 13:16 49.40727 1.05415 37237 ft 484 kts 149°
2026-04-24 13:17 49.35002 1.10881 37240 ft 484 kts 149°
2026-04-24 13:17 49.29275 1.16333 37232 ft 484 kts 149°
2026-04-24 13:18 49.23581 1.21738 37235 ft 485 kts 149°
2026-04-24 13:18 49.17822 1.27186 37217 ft 486 kts 149°
2026-04-24 13:19 49.12073 1.32612 37211 ft 485 kts 149°
2026-04-24 13:19 49.06303 1.38043 37210 ft 486 kts 148°
2026-04-24 13:20 49.00583 1.43412 37213 ft 486 kts 148°
2026-04-24 13:20 48.94818 1.48810 37214 ft 486 kts 148°
2026-04-24 13:21 48.89055 1.54190 37210 ft 486 kts 148°
2026-04-24 13:21 48.83287 1.59559 37209 ft 486 kts 148°
2026-04-24 13:22 48.77506 1.64927 37207 ft 487 kts 148°
2026-04-24 13:22 48.71717 1.70286 37196 ft 488 kts 149°
2026-04-24 13:23 48.65909 1.75650 37203 ft 486 kts 149°
2026-04-24 13:23 48.60197 1.80907 37198 ft 480 kts 149°
2026-04-24 13:24 48.54499 1.86142 37188 ft 479 kts 149°
2026-04-24 13:24 48.48801 1.91363 37189 ft 479 kts 149°
2026-04-24 13:25 48.43108 1.96563 37186 ft 477 kts 149°
2026-04-24 13:25 48.37459 2.01708 37174 ft 477 kts 149°
2026-04-24 13:26 48.31754 2.06847 37173 ft 478 kts 151°
2026-04-24 13:26 48.25555 2.10438 37174 ft 478 kts 168°
2026-04-24 13:27 48.18986 2.12121 37179 ft 479 kts 172°
2026-04-24 13:27 48.12380 2.13242 37172 ft 482 kts 176°
2026-04-24 13:28 48.05738 2.13674 37178 ft 474 kts 177°
2026-04-24 13:28 47.99152 2.14028 37188 ft 473 kts 177°
2026-04-24 13:29 47.92557 2.14393 37186 ft 473 kts 176°
2026-04-24 13:29 47.85964 2.14775 37180 ft 475 kts 176°
2026-04-24 13:30 47.79401 2.15160 37151 ft 474 kts 176°
2026-04-24 13:30 47.72791 2.15546 37153 ft 478 kts 176°
2026-04-24 13:31 47.66111 2.15936 37141 ft 479 kts 176°
2026-04-24 13:31 47.59446 2.16322 37143 ft 480 kts 176°
2026-04-24 13:32 47.52779 2.16707 37139 ft 482 kts 176°
2026-04-24 13:32 47.46046 2.17097 37143 ft 483 kts 177°
2026-04-24 13:33 47.39349 2.17482 37140 ft 484 kts 176°
2026-04-24 13:33 47.32614 2.17869 37140 ft 486 kts 177°
2026-04-24 13:34 47.25815 2.18258 37131 ft 489 kts 176°
2026-04-24 13:34 47.18996 2.18648 37131 ft 490 kts 177°
2026-04-24 13:35 47.12176 2.19083 37131 ft 490 kts 175°
2026-04-24 13:35 47.05568 2.21224 37133 ft 491 kts 160°
2026-04-24 13:36 46.99165 2.24786 37127 ft 491 kts 158°
2026-04-24 13:36 46.92832 2.28551 37122 ft 491 kts 159°
2026-04-24 13:37 46.86474 2.32323 37126 ft 494 kts 158°
2026-04-24 13:37 46.80431 2.37168 37128 ft 496 kts 148°
2026-04-24 13:38 46.74636 2.42614 37130 ft 495 kts 147°
2026-04-24 13:38 46.68937 2.48091 37129 ft 490 kts 147°
2026-04-24 13:39 46.63244 2.53534 37131 ft 487 kts 148°
2026-04-24 13:39 46.57563 2.58920 37130 ft 487 kts 148°
2026-04-24 13:40 46.51903 2.64258 37123 ft 488 kts 148°
2026-04-24 13:40 46.46174 2.69646 37126 ft 491 kts 148°
2026-04-24 13:41 46.40422 2.75047 37129 ft 492 kts 149°
2026-04-24 13:41 46.34663 2.80443 37126 ft 492 kts 149°
2026-04-24 13:42 46.28975 2.85761 37121 ft 487 kts 149°
2026-04-24 13:42 46.23288 2.91062 37127 ft 486 kts 149°
2026-04-24 13:43 46.17605 2.96345 37123 ft 486 kts 149°
2026-04-24 13:43 46.11904 3.01631 37104 ft 486 kts 149°
2026-04-24 13:44 46.06233 3.06877 37127 ft 487 kts 149°
2026-04-24 13:44 46.00514 3.12156 37111 ft 487 kts 149°
2026-04-24 13:45 45.94479 3.16436 37096 ft 482 kts 164°
2026-04-24 13:45 45.87975 3.17964 37105 ft 475 kts 180°
2026-04-24 13:46 45.81368 3.18001 37111 ft 475 kts 182°
2026-04-24 13:46 45.74758 3.17820 37103 ft 475 kts 182°
2026-04-24 13:47 45.68138 3.17668 37105 ft 477 kts 182°
2026-04-24 13:47 45.61526 3.17562 37114 ft 478 kts 182°
2026-04-24 13:48 45.54858 3.17475 37104 ft 478 kts 182°
2026-04-24 13:48 45.48200 3.17390 37116 ft 479 kts 181°
2026-04-24 13:49 45.41522 3.17301 37103 ft 480 kts 182°
2026-04-24 13:49 45.34830 3.17215 37117 ft 480 kts 182°
2026-04-24 13:50 45.28137 3.17125 37114 ft 482 kts 181°
2026-04-24 13:50 45.21463 3.17035 37118 ft 483 kts 181°
2026-04-24 13:51 45.14731 3.16946 37115 ft 483 kts 181°
2026-04-24 13:51 45.07993 3.16859 37121 ft 484 kts 181°
2026-04-24 13:52 45.01274 3.16771 37123 ft 485 kts 182°
2026-04-24 13:52 44.94516 3.16683 37122 ft 485 kts 181°
2026-04-24 13:53 44.87751 3.16601 37128 ft 486 kts 182°
2026-04-24 13:53 44.80974 3.16507 37127 ft 487 kts 181°
2026-04-24 13:54 44.74239 3.16418 37130 ft 486 kts 181°
2026-04-24 13:54 44.67461 3.16329 37130 ft 487 kts 181°
2026-04-24 13:55 44.60687 3.16242 37129 ft 486 kts 182°
2026-04-24 13:55 44.53908 3.16276 37133 ft 488 kts 180°
2026-04-24 13:56 44.47114 3.16422 37138 ft 489 kts 180°
2026-04-24 13:56 44.40288 3.16558 37138 ft 489 kts 180°
2026-04-24 13:57 44.33509 3.16674 37138 ft 490 kts 180°
2026-04-24 13:57 44.26683 3.16779 37138 ft 491 kts 180°
2026-04-24 13:58 44.19856 3.16883 37137 ft 490 kts 180°
2026-04-24 13:58 44.14166 3.16971 37139 ft 492 kts 180°
2026-04-24 13:59 44.07334 3.16847 37146 ft 491 kts 185°
2026-04-24 13:59 44.00487 3.16120 37145 ft 492 kts 185°
2026-04-24 14:00 43.93666 3.15294 37151 ft 492 kts 186°
2026-04-24 14:00 43.86852 3.14463 37152 ft 494 kts 185°
2026-04-24 14:01 43.80003 3.13642 37155 ft 494 kts 186°
2026-04-24 14:01 43.73140 3.12828 37157 ft 495 kts 185°
2026-04-24 14:02 43.66309 3.12020 37161 ft 496 kts 185°
2026-04-24 14:02 43.59434 3.11210 37163 ft 495 kts 185°
2026-04-24 14:03 43.52574 3.10402 37163 ft 495 kts 185°
2026-04-24 14:03 43.45714 3.09596 37165 ft 494 kts 185°
2026-04-24 14:04 43.38849 3.08792 37162 ft 494 kts 185°
2026-04-24 14:04 43.31994 3.07991 37162 ft 493 kts 185°
2026-04-24 14:05 43.25192 3.07198 37160 ft 493 kts 185°
2026-04-24 14:05 43.18348 3.06401 37157 ft 493 kts 185°
2026-04-24 14:06 43.11509 3.05607 37154 ft 494 kts 185°
2026-04-24 14:06 43.04648 3.04811 37148 ft 495 kts 186°
2026-04-24 14:07 42.97782 3.04017 37135 ft 494 kts 186°
2026-04-24 14:07 42.90914 3.03225 37130 ft 496 kts 186°
2026-04-24 14:08 42.84087 3.02439 37132 ft 494 kts 186°
2026-04-24 14:08 42.77217 3.01649 37133 ft 495 kts 186°
2026-04-24 14:09 42.70353 3.00863 37128 ft 494 kts 186°
2026-04-24 14:09 42.63532 3.00082 37130 ft 495 kts 186°
2026-04-24 14:10 42.56666 2.99300 37130 ft 495 kts 186°
2026-04-24 14:10 42.49779 2.98533 37117 ft 495 kts 185°
2026-04-24 14:11 42.42878 2.98708 37123 ft 497 kts 178°
2026-04-24 14:12 42.32562 2.99545 37126 ft 495 kts 177°
2026-04-24 14:12 42.25681 3.00134 37127 ft 495 kts 177°
2026-04-24 14:13 42.18811 3.00704 37133 ft 494 kts 178°
2026-04-24 14:13 42.11932 3.01263 37137 ft 495 kts 178°
2026-04-24 14:14 42.05052 3.01819 37141 ft 494 kts 177°
2026-04-24 14:14 41.94779 3.02648 37147 ft 495 kts 177°
2026-04-24 14:15 41.87917 3.03202 37147 ft 494 kts 178°
2026-04-24 14:15 41.81039 3.03754 37148 ft 495 kts 178°
2026-04-24 14:16 41.74170 3.04306 37147 ft 494 kts 178°
2026-04-24 14:17 41.63882 3.05129 37150 ft 492 kts 178°
2026-04-24 14:17 41.53610 3.05949 37151 ft 494 kts 177°
2026-04-24 14:18 41.46772 3.06493 37153 ft 495 kts 178°
2026-04-24 14:18 41.39893 3.07039 37153 ft 494 kts 178°
2026-04-24 14:19 41.33020 3.07584 37148 ft 494 kts 178°
2026-04-24 14:19 41.26146 3.08128 37148 ft 494 kts 178°
2026-04-24 14:20 41.19325 3.08666 37145 ft 494 kts 178°
2026-04-24 14:20 41.12455 3.09206 37145 ft 494 kts 178°
2026-04-24 14:21 41.05587 3.09746 37151 ft 494 kts 178°
2026-04-24 14:21 40.98761 3.10281 37148 ft 493 kts 178°
2026-04-24 14:22 40.91907 3.10817 37144 ft 493 kts 178°
2026-04-24 14:23 40.81631 3.11619 37146 ft 492 kts 178°
2026-04-24 14:23 40.74788 3.12151 37146 ft 492 kts 178°
2026-04-24 14:24 40.67950 3.12682 37143 ft 492 kts 178°
2026-04-24 14:24 40.61160 3.13209 37143 ft 492 kts 178°
2026-04-24 14:25 40.54315 3.13738 37143 ft 492 kts 178°
2026-04-24 14:25 40.47478 3.13936 37143 ft 491 kts 182°
2026-04-24 14:26 40.40693 3.13681 37138 ft 490 kts 183°
2026-04-24 14:26 40.33882 3.13353 37138 ft 489 kts 184°
2026-04-24 14:27 40.27080 3.13025 37136 ft 489 kts 183°
2026-04-24 14:27 40.20285 3.12710 37139 ft 489 kts 183°
2026-04-24 14:28 40.13493 3.12400 37136 ft 488 kts 183°
2026-04-24 14:28 40.06705 3.12092 37132 ft 488 kts 183°
2026-04-24 14:29 39.99918 3.11784 37131 ft 488 kts 183°
2026-04-24 14:29 39.93169 3.11478 37132 ft 487 kts 183°
2026-04-24 14:30 39.87533 3.11381 37128 ft 487 kts 180°
2026-04-24 14:30 39.79601 3.11635 37133 ft 487 kts 180°
2026-04-24 14:31 39.72856 3.11851 37132 ft 487 kts 180°
2026-04-24 14:31 39.66081 3.12013 37132 ft 486 kts 180°
2026-04-24 14:32 39.59305 3.12151 37130 ft 486 kts 180°
2026-04-24 14:32 39.52531 3.12285 37128 ft 486 kts 180°
2026-04-24 14:33 39.45811 3.12421 37127 ft 486 kts 180°
2026-04-24 14:33 39.39042 3.12558 37127 ft 486 kts 180°
2026-04-24 14:34 39.32277 3.12696 37122 ft 486 kts 180°
2026-04-24 14:34 39.25523 3.12834 37121 ft 484 kts 181°
2026-04-24 14:35 39.18791 3.12970 37125 ft 483 kts 181°
2026-04-24 14:35 39.12088 3.13105 37118 ft 483 kts 181°
2026-04-24 14:36 39.05360 3.13243 37117 ft 483 kts 181°
2026-04-24 14:36 38.98646 3.13384 37116 ft 482 kts 181°
2026-04-24 14:37 38.91923 3.13528 37114 ft 482 kts 181°
2026-04-24 14:37 38.85207 3.13660 37110 ft 482 kts 181°
2026-04-24 14:38 38.78497 3.13792 37107 ft 482 kts 181°
2026-04-24 14:38 38.71840 3.13924 37107 ft 481 kts 181°
2026-04-24 14:39 38.65155 3.14058 37102 ft 481 kts 181°
2026-04-24 14:39 38.58437 3.14193 37098 ft 480 kts 181°
2026-04-24 14:40 38.51788 3.14327 37103 ft 480 kts 181°
2026-04-24 14:40 38.45104 3.14462 37102 ft 479 kts 181°
2026-04-24 14:41 38.38420 3.14596 37097 ft 480 kts 181°
2026-04-24 14:41 38.31747 3.14762 37090 ft 480 kts 179°
2026-04-24 14:42 38.26242 3.15854 37092 ft 483 kts 169°
2026-04-24 14:42 38.18658 3.18281 37089 ft 484 kts 167°
2026-04-24 14:43 38.12150 3.20503 37084 ft 483 kts 168°
2026-04-24 14:43 38.05620 3.22458 37086 ft 481 kts 170°
2026-04-24 14:44 37.99072 3.24217 37081 ft 481 kts 171°
2026-04-24 14:44 37.92526 3.25994 37075 ft 481 kts 170°
2026-04-24 14:45 37.85990 3.27804 37071 ft 480 kts 170°
2026-04-24 14:45 37.79508 3.29611 37073 ft 480 kts 170°
2026-04-24 14:46 37.72977 3.31432 37072 ft 479 kts 170°
2026-04-24 14:46 37.67557 3.32938 37074 ft 479 kts 170°
2026-04-24 14:47 37.61033 3.34746 37067 ft 478 kts 169°
2026-04-24 14:47 37.54566 3.36537 37062 ft 478 kts 170°
2026-04-24 14:48 37.48077 3.38329 37063 ft 477 kts 170°
2026-04-24 14:48 37.41591 3.40117 37052 ft 477 kts 170°
2026-04-24 14:49 37.35099 3.41904 37066 ft 477 kts 170°
2026-04-24 14:49 37.28610 3.43688 37058 ft 476 kts 170°
2026-04-24 14:50 37.22165 3.45455 37052 ft 477 kts 170°
2026-04-24 14:50 37.15677 3.47232 37051 ft 477 kts 169°
2026-04-24 14:51 37.09173 3.49010 37054 ft 479 kts 169°
2026-04-24 14:51 37.02652 3.50790 37054 ft 479 kts 169°
2026-04-24 14:52 36.96131 3.52566 37044 ft 479 kts 169°
2026-04-24 14:52 36.89617 3.54338 37050 ft 478 kts 169°
2026-04-24 14:53 36.83173 3.56087 37050 ft 477 kts 169°
2026-04-24 14:53 36.79936 3.56965 37163 ft 477 kts 169°
2026-04-24 14:53 36.76679 3.57791 37500 ft 474 kts 172°
2026-04-24 14:53 36.73427 3.58414 37815 ft 472 kts 174°
2026-04-24 14:54 36.70175 3.58930 38013 ft 473 kts 175°
2026-04-24 14:54 36.63601 3.59923 38045 ft 475 kts 174°
2026-04-24 14:55 36.57048 3.60990 38056 ft 475 kts 174°
2026-04-24 14:55 36.50541 3.62107 38054 ft 475 kts 173°
2026-04-24 14:56 36.43996 3.63244 38044 ft 475 kts 173°
2026-04-24 14:56 36.37434 3.64382 38057 ft 476 kts 174°
2026-04-24 14:57 36.30868 3.65516 38054 ft 476 kts 173°
2026-04-24 14:57 36.24303 3.66646 38041 ft 476 kts 173°
2026-04-24 14:58 36.17738 3.67773 38042 ft 476 kts 174°
2026-04-24 14:58 36.11208 3.68893 38042 ft 477 kts 174°
2026-04-24 14:59 36.04632 3.70019 38043 ft 476 kts 174°
2026-04-24 14:59 35.98061 3.71143 38010 ft 477 kts 174°
2026-04-24 15:00 35.91479 3.72267 38034 ft 476 kts 174°
2026-04-24 15:00 35.84903 3.73387 38026 ft 476 kts 174°
2026-04-24 15:01 35.78332 3.74505 38019 ft 476 kts 174°
2026-04-24 15:01 35.71794 3.75616 38019 ft 476 kts 174°
2026-04-24 15:02 35.65215 3.76733 38010 ft 477 kts 174°
2026-04-24 15:02 35.58629 3.77851 38001 ft 478 kts 174°
2026-04-24 15:03 35.52018 3.78967 38002 ft 478 kts 174°
2026-04-24 15:03 35.45461 3.80072 37999 ft 478 kts 174°
2026-04-24 15:04 35.38858 3.81185 37999 ft 480 kts 174°
2026-04-24 15:04 35.32218 3.82302 38000 ft 482 kts 175°
2026-04-24 15:05 35.25567 3.83419 38002 ft 482 kts 175°
2026-04-24 15:05 35.18897 3.84539 38000 ft 483 kts 175°
2026-04-24 15:06 35.12272 3.85649 37999 ft 483 kts 175°
2026-04-24 15:06 35.05594 3.86765 38000 ft 483 kts 175°
2026-04-24 15:07 34.98936 3.87877 38000 ft 483 kts 175°
2026-04-24 15:07 34.92265 3.88988 37999 ft 483 kts 175°
2026-04-24 15:08 34.85585 3.90100 38007 ft 484 kts 175°
2026-04-24 15:08 34.78932 3.91205 38007 ft 485 kts 175°
2026-04-24 15:09 34.72240 3.92315 38007 ft 485 kts 175°
2026-04-24 15:09 34.65548 3.93423 37997 ft 485 kts 175°
2026-04-24 15:10 34.58879 3.94524 38001 ft 487 kts 175°
2026-04-24 15:10 34.52154 3.95634 38001 ft 487 kts 175°
2026-04-24 15:11 34.45434 3.96741 37995 ft 487 kts 175°
2026-04-24 15:11 34.38754 3.97841 37992 ft 487 kts 176°
2026-04-24 15:12 34.32007 3.98948 37990 ft 490 kts 176°
2026-04-24 15:12 34.21856 4.00612 37985 ft 490 kts 176°
2026-04-24 15:13 34.15090 4.01719 37985 ft 490 kts 176°
2026-04-24 15:13 34.08325 4.02228 37981 ft 483 kts 189°
2026-04-24 15:14 34.01690 4.01456 37974 ft 481 kts 191°
2026-04-24 15:14 33.95038 4.00457 37974 ft 481 kts 192°
2026-04-24 15:15 33.88398 3.99439 37961 ft 481 kts 192°
2026-04-24 15:15 33.81789 3.98451 37971 ft 481 kts 192°
2026-04-24 15:16 33.75144 3.97472 37971 ft 481 kts 192°
2026-04-24 15:16 33.68491 3.96498 37963 ft 481 kts 192°
2026-04-24 15:17 33.61894 3.95532 37959 ft 481 kts 192°
2026-04-24 15:17 33.55246 3.94561 37963 ft 480 kts 192°
2026-04-24 15:18 33.48601 3.93592 37960 ft 481 kts 192°
2026-04-24 15:18 33.41961 3.92624 37960 ft 481 kts 192°
2026-04-24 15:19 33.35314 3.91657 37960 ft 481 kts 192°
2026-04-24 15:19 33.28671 3.90692 37955 ft 481 kts 192°
2026-04-24 15:20 33.22068 3.89733 37955 ft 481 kts 192°
2026-04-24 15:20 33.15415 3.88770 37955 ft 481 kts 192°
2026-04-24 15:21 33.08766 3.87808 37937 ft 481 kts 192°
2026-04-24 15:21 33.02117 3.86849 37949 ft 481 kts 192°
2026-04-24 15:22 32.95470 3.85889 37944 ft 481 kts 192°
2026-04-24 15:23 32.85552 3.84447 37939 ft 481 kts 192°
2026-04-24 15:23 32.75585 3.83004 37931 ft 480 kts 193°
2026-04-24 15:25 32.60120 3.80774 37963 ft 479 kts 193°
2026-04-24 15:26 32.42541 3.78260 38004 ft 479 kts 192°
2026-04-24 15:27 32.32437 3.78995 38681 ft 489 kts 178°
2026-04-24 15:27 32.22294 3.80886 38906 ft 495 kts 177°
2026-04-24 15:29 32.01881 3.84696 38903 ft 494 kts 177°
2026-04-24 15:31 31.79176 3.88854 38889 ft 497 kts 177°
2026-04-24 15:33 31.50684 3.94043 38874 ft 498 kts 178°
2026-04-24 15:34 31.34693 3.96943 38870 ft 498 kts 178°
2026-04-24 15:35 31.17539 4.00042 38854 ft 498 kts 178°
2026-04-24 15:36 31.10719 4.01271 38862 ft 499 kts 178°
2026-04-24 15:36 31.00412 4.03124 38859 ft 499 kts 178°
2026-04-24 15:37 30.93539 4.04359 38859 ft 499 kts 178°
2026-04-24 15:37 30.86658 4.05593 38853 ft 500 kts 178°
2026-04-24 15:38 30.79771 4.06824 38857 ft 501 kts 178°
2026-04-24 15:38 30.72927 4.08047 38862 ft 501 kts 178°
2026-04-24 15:39 30.66033 4.09279 38855 ft 501 kts 178°
2026-04-24 15:39 30.59135 4.10509 38856 ft 501 kts 178°
2026-04-24 15:40 30.52230 4.11738 38851 ft 501 kts 178°
2026-04-24 15:40 30.45337 4.12963 38856 ft 501 kts 178°
2026-04-24 15:41 30.38486 4.14179 38852 ft 501 kts 178°
2026-04-24 15:41 30.31587 4.15402 38838 ft 501 kts 179°
2026-04-24 15:42 30.24676 4.16624 38851 ft 502 kts 179°
2026-04-24 15:42 30.17799 4.17839 38851 ft 502 kts 179°
2026-04-24 15:43 30.10906 4.19055 38851 ft 502 kts 179°
2026-04-24 15:43 30.03958 4.20281 38836 ft 503 kts 179°
2026-04-24 15:44 29.97009 4.21502 38841 ft 505 kts 179°
2026-04-24 15:44 29.90094 4.22717 38845 ft 505 kts 179°
2026-04-24 15:45 29.83135 4.23939 38840 ft 505 kts 179°
2026-04-24 15:45 29.76179 4.25158 38853 ft 505 kts 179°
2026-04-24 15:46 29.69227 4.26376 38841 ft 505 kts 179°
2026-04-24 15:46 29.62260 4.27615 38853 ft 506 kts 179°
2026-04-24 15:47 29.55337 4.28854 38846 ft 506 kts 179°
2026-04-24 15:47 29.48374 4.30096 38849 ft 506 kts 179°
2026-04-24 15:48 29.41468 4.31324 38850 ft 506 kts 179°
2026-04-24 15:48 29.34457 4.32567 38852 ft 505 kts 179°
2026-04-24 15:49 29.27542 4.33794 38853 ft 506 kts 180°
2026-04-24 15:49 29.20566 4.35028 38852 ft 506 kts 180°
2026-04-24 15:50 29.13609 4.36254 38843 ft 506 kts 180°
2026-04-24 15:50 29.06650 4.37482 38851 ft 505 kts 180°
2026-04-24 15:51 28.99694 4.38706 38849 ft 505 kts 180°
2026-04-24 15:51 28.92779 4.39924 38848 ft 505 kts 180°
2026-04-24 15:52 28.85821 4.41147 38845 ft 505 kts 180°
2026-04-24 15:52 28.78871 4.42368 38854 ft 504 kts 180°
2026-04-24 15:53 28.71930 4.43584 38854 ft 504 kts 180°
2026-04-24 15:53 28.65031 4.44790 38853 ft 504 kts 180°
2026-04-24 15:54 28.58098 4.46001 38837 ft 504 kts 180°
2026-04-24 15:54 28.51164 4.47212 38854 ft 503 kts 180°
2026-04-24 15:55 28.44235 4.48435 38847 ft 503 kts 180°
2026-04-24 15:55 28.37308 4.49683 38849 ft 503 kts 180°
2026-04-24 15:56 28.30431 4.50921 38847 ft 503 kts 180°
2026-04-24 15:56 28.23492 4.52164 38843 ft 503 kts 180°
2026-04-24 15:57 28.16565 4.53402 38845 ft 502 kts 180°
2026-04-24 15:57 28.09696 4.54626 38843 ft 502 kts 180°
2026-04-24 15:58 28.02778 4.55857 38843 ft 502 kts 180°
2026-04-24 15:58 27.95875 4.57085 38832 ft 502 kts 181°
2026-04-24 15:59 27.88963 4.58314 38841 ft 502 kts 181°
2026-04-24 15:59 27.82058 4.59538 38838 ft 502 kts 181°
2026-04-24 16:00 27.75197 4.60753 38843 ft 502 kts 181°
2026-04-24 16:00 27.68279 4.61977 38843 ft 502 kts 181°
2026-04-24 16:01 27.61373 4.63198 38840 ft 502 kts 181°
2026-04-24 16:01 27.54460 4.64418 38841 ft 502 kts 181°
2026-04-24 16:02 27.47591 4.65629 38834 ft 502 kts 181°
2026-04-24 16:02 27.40686 4.66844 38835 ft 502 kts 181°
2026-04-24 16:03 27.33770 4.68060 38831 ft 501 kts 181°
2026-04-24 16:03 27.26882 4.69270 38826 ft 501 kts 181°
2026-04-24 16:04 27.20027 4.70472 38826 ft 501 kts 181°
2026-04-24 16:04 27.13137 4.71679 38826 ft 501 kts 181°
2026-04-24 16:05 27.02787 4.73489 38827 ft 501 kts 181°
2026-04-24 16:06 26.92459 4.75292 38831 ft 500 kts 181°
2026-04-24 16:07 26.82173 4.77084 38831 ft 500 kts 181°
2026-04-24 16:07 26.71824 4.78885 38826 ft 500 kts 182°
2026-04-24 16:08 26.61545 4.80672 38829 ft 500 kts 182°
2026-04-24 16:09 26.51230 4.82458 38829 ft 500 kts 182°
2026-04-24 16:09 26.44333 4.83650 38821 ft 500 kts 182°
2026-04-24 16:11 26.27206 4.86608 38839 ft 499 kts 182°
2026-04-24 16:11 26.20344 4.87790 38844 ft 499 kts 182°
2026-04-24 16:12 26.10037 4.89563 38849 ft 499 kts 182°
2026-04-24 16:13 25.99782 4.91324 38854 ft 498 kts 182°
2026-04-24 16:14 25.86085 4.93671 38821 ft 498 kts 182°
2026-04-24 16:14 25.75817 4.95428 38852 ft 497 kts 182°
2026-04-24 16:15 25.65597 4.97173 38854 ft 497 kts 182°
2026-04-24 16:16 25.55346 4.98919 38813 ft 497 kts 182°
2026-04-24 16:17 25.38332 5.01813 38846 ft 495 kts 182°
2026-04-24 16:18 25.24698 5.04124 38837 ft 495 kts 182°
2026-04-24 16:19 25.14539 5.05844 38835 ft 494 kts 182°
2026-04-24 16:20 25.04347 5.07567 38835 ft 494 kts 182°
2026-04-24 16:20 24.94139 5.09288 38836 ft 494 kts 182°
2026-04-24 16:21 24.83974 5.11000 38840 ft 494 kts 182°
2026-04-24 16:22 24.77167 5.12145 38840 ft 494 kts 182°
2026-04-24 16:22 24.68106 5.13667 38840 ft 495 kts 182°
2026-04-24 16:23 24.61300 5.14808 38840 ft 494 kts 182°
2026-04-24 16:24 24.51078 5.16521 38840 ft 495 kts 182°
2026-04-24 16:24 24.44281 5.17658 38841 ft 494 kts 182°
2026-04-24 16:25 24.37475 5.18795 38843 ft 494 kts 182°
2026-04-24 16:25 24.30713 5.19924 38843 ft 494 kts 182°
2026-04-24 16:26 24.20494 5.21625 38837 ft 495 kts 182°
2026-04-24 16:27 24.10250 5.23330 38828 ft 496 kts 182°
2026-04-24 16:27 24.03462 5.24459 38818 ft 496 kts 182°
2026-04-24 16:28 23.96643 5.25591 38800 ft 496 kts 182°
2026-04-24 16:28 23.86391 5.27291 38812 ft 496 kts 182°
2026-04-24 16:29 23.79563 5.28422 38812 ft 496 kts 182°
2026-04-24 16:30 23.65921 5.30679 38812 ft 496 kts 182°
2026-04-24 16:30 23.59089 5.31806 38811 ft 496 kts 182°
2026-04-24 16:31 23.52262 5.32932 38811 ft 496 kts 182°
2026-04-24 16:31 23.45435 5.34056 38836 ft 496 kts 182°
2026-04-24 16:32 23.38651 5.35172 38844 ft 496 kts 182°
2026-04-24 16:32 23.31806 5.36296 38812 ft 496 kts 182°
2026-04-24 16:33 23.24975 5.37419 38841 ft 495 kts 182°
2026-04-24 16:33 23.18161 5.38539 38841 ft 494 kts 182°
2026-04-24 16:34 23.11348 5.39655 38867 ft 495 kts 182°
2026-04-24 16:34 23.04562 5.40765 38908 ft 495 kts 182°
2026-04-24 16:35 22.97753 5.41877 38943 ft 495 kts 182°
2026-04-24 16:35 22.90953 5.42989 38987 ft 493 kts 182°
2026-04-24 16:36 22.84150 5.44102 38993 ft 494 kts 182°
2026-04-24 16:36 22.80797 5.44881 38994 ft 505 kts 174°
2026-04-24 16:36 22.77439 5.46109 38994 ft 511 kts 170°
2026-04-24 16:37 22.70792 5.48915 38981 ft 515 kts 168°
2026-04-24 16:37 22.64139 5.51865 38924 ft 515 kts 167°
2026-04-24 16:38 22.57513 5.54794 38867 ft 513 kts 167°
2026-04-24 16:38 22.50927 5.57673 38812 ft 513 kts 167°
2026-04-24 16:39 22.44308 5.60553 38771 ft 513 kts 168°
2026-04-24 16:39 22.37664 5.63439 38775 ft 513 kts 168°
2026-04-24 16:40 22.31031 5.66319 38762 ft 513 kts 167°
2026-04-24 16:40 22.24413 5.69191 38764 ft 512 kts 167°
2026-04-24 16:41 22.17843 5.72039 38757 ft 512 kts 167°
2026-04-24 16:41 22.11219 5.74906 38755 ft 513 kts 167°
2026-04-24 16:42 22.04616 5.77761 38743 ft 513 kts 167°
2026-04-24 16:42 21.98004 5.80618 38744 ft 513 kts 167°
2026-04-24 16:43 21.91380 5.83477 38744 ft 513 kts 167°
2026-04-24 16:43 21.84753 5.86335 38744 ft 513 kts 167°
2026-04-24 16:44 21.78133 5.89187 38738 ft 513 kts 167°
2026-04-24 16:44 21.71504 5.92040 38738 ft 512 kts 167°
2026-04-24 16:45 21.64875 5.94891 38726 ft 510 kts 167°
2026-04-24 16:45 21.58307 5.97716 38738 ft 507 kts 167°
2026-04-24 16:46 21.51789 6.00511 38730 ft 507 kts 167°
2026-04-24 16:46 21.45237 6.03317 38731 ft 507 kts 167°
2026-04-24 16:47 21.38679 6.06125 38732 ft 507 kts 167°
2026-04-24 16:47 21.32120 6.08931 38729 ft 507 kts 167°
2026-04-24 16:48 21.25560 6.11735 38726 ft 507 kts 167°
2026-04-24 16:48 21.19002 6.14535 38728 ft 508 kts 167°
2026-04-24 16:49 21.12438 6.17336 38728 ft 508 kts 167°
2026-04-24 16:49 21.05917 6.20115 38723 ft 507 kts 167°
2026-04-24 16:50 20.99358 6.22908 38721 ft 507 kts 167°
2026-04-24 16:50 20.92783 6.25705 38718 ft 507 kts 167°
2026-04-24 16:51 20.86263 6.28476 38716 ft 507 kts 167°
2026-04-24 16:51 20.79707 6.31260 38716 ft 507 kts 167°
2026-04-24 16:52 20.73144 6.34044 38711 ft 506 kts 167°
2026-04-24 16:52 20.66591 6.36820 38702 ft 506 kts 167°
2026-04-24 16:53 20.60077 6.39578 38711 ft 506 kts 167°
2026-04-24 16:53 20.53525 6.42350 38711 ft 506 kts 167°
2026-04-24 16:54 20.46968 6.45121 38705 ft 506 kts 167°
2026-04-24 16:54 20.40411 6.47888 38706 ft 506 kts 167°
2026-04-24 16:55 20.33857 6.50652 38686 ft 507 kts 166°
2026-04-24 16:55 20.27283 6.53424 38703 ft 507 kts 166°
2026-04-24 16:56 20.20776 6.56166 38702 ft 506 kts 166°
2026-04-24 16:56 20.14102 6.58172 38705 ft 488 kts 181°
2026-04-24 16:57 20.10744 6.58369 38705 ft 477 kts 190°
2026-04-24 16:57 20.07479 6.57996 38699 ft 466 kts 199°
2026-04-24 16:57 20.01372 6.55988 38676 ft 457 kts 207°
2026-04-24 16:58 19.95433 6.53571 38699 ft 457 kts 208°
2026-04-24 16:58 19.89535 6.51136 38695 ft 458 kts 208°
2026-04-24 16:59 19.83565 6.48715 38694 ft 458 kts 207°
2026-04-24 17:00 19.74610 6.45127 38695 ft 458 kts 207°
2026-04-24 17:00 19.65695 6.41562 38688 ft 458 kts 207°
2026-04-24 17:01 19.56715 6.37971 38689 ft 459 kts 207°
2026-04-24 17:02 19.47768 6.34399 38697 ft 459 kts 207°
2026-04-24 17:02 19.41780 6.32012 38689 ft 460 kts 207°
2026-04-24 17:03 19.32790 6.28429 38687 ft 459 kts 207°
2026-04-24 17:04 19.26811 6.26050 38693 ft 459 kts 207°
2026-04-24 17:04 19.17879 6.22497 38691 ft 459 kts 207°
2026-04-24 17:05 19.11904 6.20123 38690 ft 459 kts 207°
2026-04-24 17:06 19.02932 6.16562 38692 ft 459 kts 207°
2026-04-24 17:06 18.93978 6.13013 38691 ft 457 kts 206°
2026-04-24 17:07 18.88023 6.10654 38689 ft 456 kts 206°
2026-04-24 17:08 18.76116 6.05940 38691 ft 460 kts 206°
2026-04-24 17:08 18.71133 6.03971 38692 ft 460 kts 206°
2026-04-24 17:09 18.59139 5.99239 38688 ft 458 kts 206°
2026-04-24 17:10 18.47232 5.94545 38689 ft 458 kts 206°
2026-04-24 17:12 18.23380 5.85164 38693 ft 455 kts 206°
2026-04-24 18:54 6.44876 -0.08727 13918 ft 413 kts 173°
2026-04-24 18:55 6.39216 -0.08162 12626 ft 404 kts 172°
2026-04-24 18:55 6.36461 -0.07889 12023 ft 399 kts 172°
2026-04-24 18:55 6.33707 -0.07616 11408 ft 395 kts 172°
2026-04-24 18:56 6.30986 -0.07347 10796 ft 391 kts 172°
2026-04-24 18:56 6.28328 -0.07085 10598 ft 373 kts 172°
2026-04-24 18:56 6.25813 -0.06839 10485 ft 353 kts 172°
2026-04-24 18:56 6.23427 -0.06605 10394 ft 335 kts 172°
2026-04-24 18:57 6.21158 -0.06382 10246 ft 319 kts 171°
2026-04-24 18:57 6.18998 -0.06169 10124 ft 305 kts 171°
2026-04-24 18:57 6.16951 -0.05966 9984 ft 294 kts 171°
2026-04-24 18:57 6.14951 -0.05768 9842 ft 284 kts 171°
2026-04-24 18:58 6.12963 -0.05570 9493 ft 294 kts 171°
2026-04-24 18:58 6.10899 -0.05363 9151 ft 300 kts 171°
2026-04-24 18:58 6.08829 -0.05157 8909 ft 297 kts 172°
2026-04-24 18:58 6.06783 -0.04952 8546 ft 293 kts 172°
2026-04-24 18:59 6.04760 -0.04751 8093 ft 292 kts 172°
2026-04-24 18:59 6.02744 -0.04551 7689 ft 289 kts 173°
2026-04-24 18:59 6.00759 -0.04356 7336 ft 284 kts 173°
2026-04-24 18:59 5.98823 -0.04166 6997 ft 281 kts 173°
2026-04-24 19:00 5.96886 -0.03976 6657 ft 278 kts 174°
2026-04-24 19:00 5.94967 -0.03786 6315 ft 276 kts 174°
2026-04-24 19:00 5.93054 -0.03663 5979 ft 274 kts 182°
2026-04-24 19:00 5.91199 -0.04062 5738 ft 272 kts 199°
2026-04-24 19:01 5.89456 -0.04758 5469 ft 265 kts 202°
2026-04-24 19:01 5.87818 -0.05448 5171 ft 248 kts 202°
2026-04-24 19:01 5.86246 -0.06104 4669 ft 241 kts 202°
2026-04-24 19:01 5.84732 -0.06726 4262 ft 230 kts 202°
2026-04-24 19:02 5.83759 -0.07123 4118 ft 217 kts 202°
2026-04-24 19:02 5.82006 -0.07834 3850 ft 194 kts 202°
2026-04-24 19:02 5.80775 -0.08337 3430 ft 188 kts 203°
2026-04-24 19:02 5.79599 -0.08822 3336 ft 181 kts 204°
2026-04-24 19:03 5.78438 -0.09305 3252 ft 181 kts 204°
2026-04-24 19:03 5.77272 -0.09792 3155 ft 181 kts 204°
2026-04-24 19:03 5.76113 -0.10274 3076 ft 180 kts 204°
2026-04-24 19:03 5.74955 -0.10755 2922 ft 179 kts 204°
2026-04-24 19:04 5.73825 -0.11222 2688 ft 178 kts 204°
2026-04-24 19:04 5.72685 -0.11693 2471 ft 174 kts 203°
2026-04-24 19:04 5.71590 -0.12145 2248 ft 165 kts 204°
2026-04-24 19:04 5.70562 -0.12570 2032 ft 153 kts 204°
2026-04-24 19:05 5.69616 -0.12961 1824 ft 141 kts 203°
2026-04-24 19:05 5.68739 -0.13323 1659 ft 132 kts 204°
2026-04-24 19:05 5.67897 -0.13673 1500 ft 131 kts 204°
2026-04-24 19:05 5.67051 -0.14023 1319 ft 131 kts 205°
2026-04-24 19:06 5.66223 -0.14366 1156 ft 130 kts 204°
2026-04-24 19:06 5.65376 -0.14716 1001 ft 132 kts 204°
2026-04-24 19:06 5.64524 -0.15066 827 ft 132 kts 204°
2026-04-24 19:06 5.63680 -0.15408 659 ft 129 kts 204°
2026-04-24 19:07 5.62840 -0.15762 512 ft 131 kts 202°
2026-04-24 19:07 5.62007 -0.16109 329 ft 127 kts 200°
2026-04-24 19:07 5.61468 -0.16333 246 ft 127 kts 202°
2026-04-24 19:07 5.60525 -0.16721 226 ft 85 kts 202°
2026-04-24 19:08 5.60153 -0.16875 223 ft 37 kts 202°
2026-04-24 19:08 5.59966 -0.16971 219 ft 24 kts 222°
2026-04-24 19:08 5.59873 -0.17071 220 ft 15 kts 232°
2026-04-24 19:08 5.59817 -0.17148 219 ft 8 kts 247°
2026-04-24 19:09 5.59842 -0.17188 221 ft 8 kts 325°
2026-04-24 19:09 5.59899 -0.17188 220 ft 9 kts 22°
2026-04-24 19:09 5.59970 -0.17159 222 ft 12 kts 22°
2026-04-24 19:09 5.60021 -0.17138 221 ft 10 kts 22°
2026-04-24 19:10 5.60094 -0.17108 218 ft 13 kts 22°
2026-04-24 19:10 5.60185 -0.17071 224 ft 15 kts 22°
2026-04-24 19:10 5.60260 -0.17039 226 ft 9 kts 22°
2026-04-24 19:10 5.60304 -0.17034 222 ft 6 kts 338°
2026-04-24 19:11 5.60327 -0.17071 227 ft 7 kts 291°
2026-04-24 19:11 5.60336 -0.17095 228 ft 2 kts 291°
2026-04-24 19:11 5.60339 -0.17103 228 ft 0 kts 291°
2026-04-24 19:11 5.60340 -0.17106 228 ft 0 kts 292°
2026-04-24 19:12 5.60342 -0.17111 221 ft 0 kts 292°